Weather in Algach

Russia / Amur Oblast     53°23′26″N   126°59′10″E
temp.,
°C
wind,
m/s
gust,
m/s
humid.,
%
clouds,
%
prec.,
mm/h
press.,
hPa
HPBL,
m
12 april, mon
mon1200:00−12nnw1192100 0.0 102915
03:00−12nw1286100 0.0 102855
06:00−12nw1485100 0.0 1027117
09:00−8nnw245652 0.0 1026509
12:00−4nnw564492 0.0 10231521
15:00−3nnw5744100 0.0 10202103
18:00−5nnw475788 0.0 10201171
21:00−10nw28825 0.0 1020145
13 april, tue
tue1300:00−11nw38845 0.0 1019170
03:00−12nw388052 0.0 1017176
06:00−12nnw28815 0.0 1016171
09:00−6n57530 0.0 1015808
12:00−3n4640100 0.0 10131961
15:00−2n5847100 0.0 10112110
18:00−3n4757100 0.1 10111147
21:00−8nw278435 0.2 1011115
14 april, wed
wed1400:00−10nw26885 0.0 1010100
03:00−12wnw11935 0.0 101030
06:00−13wnw11945 0.0 101035
09:00−5nw23570 0.0 1009352
12:00−2wnw234025 0.0 10081663
15:000wnw2536100 0.0 10071976
18:000nnw1249100 0.0 100794
21:00−5w117787 0.0 100910
15 april, thu
thu1500:00−7nw119351 0.0 101010
03:00−9wsw009743 0.0 101010
06:00−9wsw009759 0.0 101112
09:00−3wnw116640 0.0 1011271
12:00+2ene1147100 0.0 1010916
15:00+3ese2240100 0.0 10101424
18:00+1e2457100 0.0 1010122
21:00−1ene3967100 0.0 1011293
16 april, fri
fri1600:00−2ene31171100 0.0 1009396
03:00−2ene51359100 0.0 1007547
06:00−3ne51375100 0.4 1006891
09:00−3ne51391100 3.5 1006770
12:00−1ne51190100 2.9 1006621
15:00+1ne4996100 4.8 1006597
18:00+1ne3993100 0.4 1006546
21:000nne2799100 1.1 1008290